GW6177 Weather Reports


time (UTC)temp
C
wind
direction
speed
KPH
gust
KPH
rain 1hr
cm
rain 24hr
cm
rain mn
cm
humidity
%
barometer
mb
20260505125036 9 257 6.4 6.4 0.00 2.31 2.31 92 1009.0
20260505124532 10 355 3.2 8.0 0.13 2.31 2.31 91 1009.1
20260505124028 10 343 4.8 8.0 0.18 2.31 2.31 92 1009.2
20260505123525 10 31 8.0 8.0 0.05 2.31 2.31 92 1009.2
20260505123021 10 329 4.8 9.7 0.05 2.29 2.29 92 1009.1
20260505122519 10 307 1.6 8.0 0.13 2.29 2.29 92 1009.2
20260505122015 10 300 3.2 6.4 0.13 2.29 2.29 94 1008.6
20260505121512 10 358 3.2 6.4 0.13 2.26 2.26 95 1008.3
20260505121009 10 333 1.6 4.8 0.05 2.26 2.26 95 1008.6
20260505120505 10 233 0.0 4.8 0.00 2.26 2.26 95 1008.4
20260505120005 10 29 0.0 3.2 0.00 2.26 2.26 95 1008.2
20260505115500 10 199 0.0 3.2 0.05 2.26 2.26 95 1008.6
20260505114958 10 9 1.6 3.2 0.05 2.26 2.26 95 1008.4
20260505114455 10 332 3.2 3.2 0.00 2.24 2.24 95 1008.0
20260505113952 10 357 0.0 4.8 0.05 2.24 2.24 94 1008.0
20260505113448 10 221 0.0 3.2 0.18 2.24 2.24 95 1007.8
20260505112943 10 334 3.2 3.2 0.23 2.24 2.24 94 1007.7
20260505112441 10 0 0.0 0.0 0.13 2.21 2.21 94 1007.9
20260505111938 10 236 0.0 1.6 0.05 2.18 2.18 94 1008.1
20260505111432 10 286 3.2 4.8 0.00 2.18 2.18 94 1007.4
20260505110929 10 29 3.2 3.2 0.00 2.18 2.18 94 1007.5
20260505110425 10 62 1.6 3.2 0.05 2.18 2.18 94 1007.7
20260505101856 11 205 4.8 6.4 0.97 1.98 1.98 92 1007.5
20260505101351 11 341 3.2 3.2 0.79 1.93 1.93 93 1007.3
20260505100847 12 13 0.0 3.2 0.36 1.80 1.80 91 1007.3
20260505100344 12 170 3.2 3.2 0.30 1.78 1.78 94 1007.5
20260505095840 12 345 0.0 4.8 0.18 1.75 1.75 95 1007.0
20260505095338 13 266 3.2 6.4 0.23 1.75 1.75 97 1007.1
20260505094833 13 342 3.2 9.7 0.13 1.70 1.70 97 1007.1
20260505094331 13 245 0.0 3.2 0.30 1.70 1.70 97 1006.8
20260505093826 13 228 0.0 1.6 0.18 1.68 1.68 97 1006.3
20260505093324 13 302 3.2 3.2 0.00 1.65 1.65 97 1006.2
20260505092820 13 286 0.0 3.2 0.00 1.65 1.65 97 1005.8
20260505092319 14 10 3.2 3.2 0.00 1.65 1.65 97 1005.7
20260505091816 14 339 3.2 3.2 0.00 1.65 1.65 97 1005.8
20260505091314 14 343 0.0 1.6 0.00 1.65 1.65 97 1005.7
20260505090811 14 288 3.2 3.2 0.00 1.65 1.65 97 1005.5
20260505090309 14 297 1.6 4.8 0.00 1.65 1.65 97 1005.3
20260505085806 14 344 3.2 3.2 0.00 1.65 1.65 97 1005.2
20260505085305 14 337 3.2 4.8 0.00 1.65 1.65 97 1005.1
20260505084801 14 298 3.2 4.8 0.00 1.65 1.65 97 1005.1
20260505084300 14 357 1.6 3.2 0.00 1.65 1.65 97 1005.1
20260505083757 14 280 4.8 8.0 0.00 1.65 1.65 97 1005.2
20260505083253 14 254 3.2 3.2 0.00 1.65 1.65 97 1005.2
20260505082750 14 28 1.6 3.2 0.00 1.65 1.65 97 1004.2
20260505082247 14 105 3.2 4.8 0.05 1.65 1.65 96 1003.4
20260505081743 14 95 3.2 3.2 0.13 1.65 1.65 97 1003.7
20260505081240 14 344 3.2 4.8 0.18 1.63 1.63 96 1004.0
20260505080737 14 81 3.2 6.4 0.30 1.63 1.63 96 1004.5
20260505080232 14 79 3.2 4.8 0.30 1.60 1.60 96 1004.7
20260505075729 15 324 1.6 4.8 0.30 1.57 1.57 96 1004.4
20260505075226 15 332 3.2 4.8 0.36 1.55 1.55 96 1004.6
20260505074723 15 102 3.2 4.8 0.23 1.50 1.50 96 1004.4
20260505074220 15 352 0.0 1.6 0.23 1.50 1.50 96 1004.4
20260505073718 15 122 1.6 3.2 0.36 1.47 1.47 96 1004.5
20260505073216 15 308 4.8 6.4 0.43 1.45 1.45 96 1004.4
20260505072711 15 171 0.0 3.2 0.36 1.42 1.42 96 1004.6
20260505072208 15 38 0.0 3.2 0.36 1.37 1.37 96 1004.7
20260505071703 15 0 3.2 8.0 0.48 1.35 1.35 96 1004.9
20260505071201 15 337 1.6 3.2 0.43 1.32 1.32 96 1005.4
20260505070658 14 36 1.6 6.4 0.23 1.27 1.27 96 1005.9
20260505070154 14 271 3.2 6.4 0.18 1.22 1.22 96 1006.6
20260505065650 14 234 3.2 6.4 0.23 1.22 1.22 95 1006.3
20260505065147 14 237 0.0 1.6 0.23 1.19 1.19 95 1005.8
20260505064644 14 254 0.0 6.4 0.30 1.19 1.19 95 1005.7
20260505064142 13 277 3.2 4.8 0.30 1.14 1.14 94 1005.9
20260505063640 13 269 0.0 6.4 0.43 1.12 1.12 94 1005.9
20260505063136 13 89 0.0 8.0 1.14 1.09 1.09 93 1005.8
20260505062632 14 247 3.2 4.8 2.34 1.04 1.04 93 1005.9
20260505062129 14 298 4.8 14.5 2.69 0.89 0.89 91 1005.9
20260505061626 15 97 3.2 14.5 0.84 0.56 0.56 92 1005.9
20260505061124 15 328 4.8 16.1 0.05 0.43 0.43 91 1005.4
20260505060622 15 233 3.2 12.9 0.05 0.43 0.43 89 1004.1
20260505060119 15 119 11.3 14.5 0.13 0.43 0.43 85 1004.3
20260505055614 16 30 6.4 9.7 0.23 0.41 0.41 85 1004.9
20260505055110 16 130 4.8 8.0 0.13 0.38 0.38 87 1004.2
20260505054608 16 31 4.8 6.4 0.36 0.38 0.38 90 1003.9
20260505054106 16 7 4.8 8.0 0.30 0.36 0.36 86 1003.5
20260505053603 17 106 3.2 9.7 1.19 0.30 0.30 82 1002.9
20260505053059 17 89 0.0 6.4 1.55 0.28 0.28 81 1002.8
20260505052556 18 143 0.0 6.4 0.05 0.03 0.03 75 1003.2
20260505052054 18 308 4.8 9.7 0.18 0.03 0.03 71 1002.6
20260505051551 19 112 9.7 12.9 0.13 0.03 0.03 69 1002.4
20260505051049 19 59 8.0 9.7 0.00 0.00 0.00 67 1002.4
20260505050546 19 156 1.6 16.1 0.00 0.00 0.00 67 1002.4
20260505041514 19 132 6.4 12.9 0.00 1.12 1.12 67 1001.8
20260505041012 19 62 0.0 11.3 0.00 1.12 1.12 67 1002.0
20260505040509 20 84 4.8 8.0 0.00 1.12 1.12 68 1002.1
20260505040006 19 89 11.3 14.5 0.00 1.12 1.12 67 1002.0
20260505035502 19 112 12.9 14.5 0.00 1.12 1.12 68 1002.1
20260505034959 19 15 1.6 8.0 0.00 1.12 1.12 68 1002.0
20260505034455 19 66 4.8 6.4 0.00 1.12 1.12 68 1002.2
20260505033952 19 98 4.8 9.7 0.00 1.12 1.12 69 1002.2
20260505033449 19 57 0.0 11.3 0.00 1.12 1.12 68 1002.4
20260505032947 19 15 4.8 8.0 0.00 1.12 1.12 68 1002.2
20260505032444 20 125 11.3 14.5 0.00 1.12 1.12 67 1002.3
20260505031940 20 78 6.4 9.7 0.00 1.12 1.12 67 1002.2
20260505031438 20 116 6.4 9.7 0.00 1.12 1.12 67 1002.4
20260505030935 20 127 6.4 12.9 0.00 1.12 1.12 67 1002.3
20260505030431 19 89 6.4 12.9 0.00 1.12 1.12 68 1002.2
20260505025926 19 55 3.2 12.9 0.00 1.12 1.12 70 1002.2
20260505025423 20 111 3.2 8.0 0.00 1.12 1.12 68 1002.2
20260505024922 20 77 0.0 8.0 0.00 1.12 1.12 69 1002.2
20260505024419 20 23 3.2 8.0 0.00 1.12 1.12 68 1002.2
20260505023916 19 25 0.0 8.0 0.00 1.12 1.12 69 1002.1
20260505023413 19 98 9.7 9.7 0.00 1.12 1.12 69 1002.1
20260505022910 19 112 3.2 16.1 0.00 1.12 1.12 73 1002.1
20260505022408 19 78 8.0 9.7 0.00 1.12 1.12 71 1002.0
20260505021905 19 87 6.4 12.9 0.00 1.12 1.12 71 1001.8
20260505021401 19 79 1.6 9.7 0.00 1.12 1.12 73 1001.7
20260505020857 18 47 6.4 9.7 0.00 1.12 1.12 73 1002.0
20260505020353 18 74 8.0 9.7 0.00 1.12 1.12 73 1001.7
20260505015850 18 81 8.0 8.0 0.00 1.12 1.12 74 1001.7
20260505015347 18 86 6.4 8.0 0.00 1.12 1.12 75 1001.6
20260505014844 18 78 4.8 11.3 0.00 1.12 1.12 75 1001.3
20260505014341 18 86 4.8 8.0 0.00 1.12 1.12 76 1001.4
20260505013838 18 76 1.6 9.7 0.00 1.12 1.12 76 1001.3
20260505013335 18 71 6.4 8.0 0.00 1.12 1.12 79 1001.3
20260505012833 17 82 6.4 9.7 0.00 1.12 1.12 80 1001.5
20260505012331 17 75 3.2 6.4 0.00 1.12 1.12 81 1001.2
20260505011826 17 62 4.8 6.4 0.00 1.12 1.12 80 1001.2
20260505011324 17 91 6.4 8.0 0.00 1.12 1.12 82 1001.4
20260505010819 17 76 4.8 6.4 0.00 1.12 1.12 82 1001.1
20260505010315 17 97 1.6 6.4 0.00 1.12 1.12 84 1001.3
20260505005812 17 101 3.2 4.8 0.00 1.12 1.12 85 1001.2
20260505005309 17 43 1.6 6.4 0.00 1.12 1.12 84 1001.2
20260505004806 17 93 3.2 6.4 0.00 1.12 1.12 83 1001.4
20260505004302 18 88 3.2 8.0 0.00 1.12 1.12 84 1001.2
20260505003800 17 125 9.7 14.5 0.00 1.12 1.12 84 1001.3
20260505003257 17 94 3.2 6.4 0.00 1.12 1.12 86 1001.0
20260505002753 17 86 3.2 4.8 0.00 1.12 1.12 87 1001.3
20260505002251 17 29 0.0 3.2 0.00 1.12 1.12 87 1001.4
20260505001749 17 57 1.6 3.2 0.00 1.12 1.12 87 1001.3
20260505001246 17 37 3.2 6.4 0.00 1.12 1.12 85 1001.1
20260505000742 17 315 4.8 6.4 0.00 1.12 1.12 88 1001.2
20260505000240 17 113 0.0 9.7 0.00 1.12 1.12 88 1001.7
20260504235737 17 58 4.8 6.4 0.00 1.12 1.12 92 1001.7
20260504235233 17 185 0.0 3.2 0.13 1.12 1.12 92 1002.0
20260504234730 17 70 4.8 4.8 0.30 1.12 1.12 93 1001.8
20260504234228 17 62 1.6 3.2 0.23 1.09 1.09 93 1002.1
20260504233724 17 354 4.8 4.8 0.18 1.07 1.07 93 1001.9
20260504233219 17 119 4.8 6.4 0.66 1.04 1.04 92 1001.8
20260504232717 17 268 3.2 6.4 1.37 1.04 1.04 89 1002.0
20260504232214 18 355 6.4 6.4 1.07 0.94 0.94 83 1001.8
20260504231710 20 32 3.2 6.4 0.61 0.81 0.81 74 1001.7
20260504231207 21 79 1.6 9.7 0.53 0.76 0.76 68 1001.6
20260504230703 22 159 3.2 14.5 0.13 0.69 0.69 61 1001.5
20260504230202 22 64 6.4 24.1 0.00 0.66 0.66 56 1001.7
20260504225700 22 79 6.4 11.3 0.00 0.66 0.66 57 1001.6
20260504225155 22 102 6.4 19.3 0.00 0.66 0.66 56 1001.8
20260504224653 23 132 1.6 14.5 0.00 0.66 0.66 56 1002.0
20260504224150 22 117 4.8 17.7 0.00 0.66 0.66 57 1002.0
20260504223647 22 346 3.2 9.7 0.00 0.66 0.66 58 1001.9
20260504223142 22 146 3.2 8.0 0.00 0.66 0.66 56 1001.9
20260504222640 22 103 14.5 19.3 0.00 0.66 0.66 55 1002.2
20260504222136 22 303 8.0 16.1 0.00 0.66 0.66 56 1002.3
20260504221634 22 220 8.0 9.7 0.00 0.66 0.66 55 1002.2
20260504221131 22 87 3.2 17.7 0.00 0.66 0.66 55 1002.2
20260504220627 23 6 3.2 14.5 0.00 0.66 0.66 55 1002.3
20260504220125 23 144 12.9 16.1 0.00 0.66 0.66 54 1002.3
20260504215621 23 186 1.6 6.4 0.00 0.66 0.66 56 1002.3
20260504215118 23 118 12.9 16.1 0.00 0.66 0.66 55 1002.3
20260504214614 23 288 6.4 17.7 0.00 0.66 0.66 56 1002.4
20260504214110 23 45 11.3 11.3 0.00 0.66 0.66 55 1002.3
20260504213607 23 43 6.4 12.9 0.00 0.66 0.66 55 1002.5
20260504213104 23 297 3.2 12.9 0.00 0.66 0.66 57 1002.5
20260504212600 23 228 1.6 20.9 0.00 0.66 0.66 55 1002.5
20260504212057 23 103 22.5 27.4 0.00 0.66 0.66 55 1002.5
20260504211554 23 157 4.8 17.7 0.00 0.66 0.66 58 1002.8
20260504211051 23 301 0.0 6.4 0.00 0.66 0.66 58 1002.8
20260504210549 23 75 4.8 14.5 0.00 0.66 0.66 56 1003.1
20260504210045 22 256 6.4 14.5 0.00 0.66 0.66 60 1002.7
20260504205543 23 230 8.0 12.9 0.00 0.66 0.66 57 1002.6
20260504205041 23 120 8.0 22.5 0.00 0.66 0.66 54 1002.9
20260504204538 22 287 4.8 19.3 0.00 0.66 0.66 56 1003.1
20260504204037 23 115 8.0 20.9 0.00 0.66 0.66 56 1002.8
20260504203535 23 99 6.4 20.9 0.00 0.66 0.66 56 1003.2
20260504203032 23 116 8.0 19.3 0.00 0.66 0.66 55 1003.1
20260504202527 22 102 14.5 19.3 0.00 0.66 0.66 58 1003.0
20260504202025 22 230 3.2 20.9 0.00 0.66 0.66 58 1003.2
20260504201521 23 69 9.7 22.5 0.00 0.66 0.66 57 1003.3
20260504201019 22 80 16.1 25.7 0.00 0.66 0.66 57 1003.4
20260504200515 22 76 9.7 17.7 0.00 0.66 0.66 58 1003.5
20260504200012 22 114 12.9 14.5 0.00 0.66 0.66 61 1003.3
20260504195508 21 180 4.8 25.7 0.00 0.66 0.66 59 1003.1
20260504195005 21 140 4.8 12.9 0.00 0.66 0.66 61 1003.3
20260504194501 21 104 14.5 24.1 0.00 0.66 0.66 60 1003.1
20260504193957 21 100 14.5 20.9 0.00 0.66 0.66 60 1003.3
20260504193454 21 101 6.4 11.3 0.00 0.66 0.66 60 1003.4
20260504192953 21 81 4.8 16.1 0.00 0.66 0.66 62 1003.7
20260504192450 21 71 11.3 20.9 0.00 0.66 0.66 62 1003.7
20260504191949 21 93 20.9 22.5 0.00 0.66 0.66 64 1004.0
20260504191446 20 105 8.0 11.3 0.00 0.66 0.66 66 1004.3
20260504190941 20 111 3.2 14.5 0.00 0.66 0.66 65 1004.3
20260504190437 20 113 9.7 17.7 0.00 0.66 0.66 64 1004.4
20260504185934 20 89 3.2 14.5 0.00 0.66 0.66 62 1004.4
20260504185432 21 70 8.0 16.1 0.00 0.66 0.66 62 1004.4
20260504184927 20 128 4.8 20.9 0.00 0.66 0.66 62 1004.4
20260504184423 20 105 17.7 24.1 0.00 0.66 0.66 65 1004.5
20260504183919 18 101 4.8 6.4 0.00 0.66 0.66 74 1004.7
20260504183417 18 14 9.7 12.9 0.00 0.66 0.66 71 1004.9
20260504182915 17 242 3.2 14.5 0.00 0.66 0.66 72 1004.5
20260504182411 17 268 4.8 9.7 0.00 0.66 0.66 72 1004.5
20260504181908 17 278 11.3 19.3 0.05 0.66 0.66 73 1004.5
20260504181406 17 105 0.0 17.7 0.05 0.66 0.66 73 1004.2
20260504180904 17 98 8.0 16.1 0.00 0.66 0.66 73 1004.0
20260504180403 18 76 4.8 12.9 0.00 0.66 0.66 71 1004.4
20260504175900 18 109 3.2 11.3 0.00 0.66 0.66 71 1004.3
20260504175357 18 87 11.3 12.9 0.05 0.66 0.66 70 1004.5
20260504174855 19 92 6.4 16.1 0.05 0.66 0.66 67 1004.0
20260504174352 20 87 4.8 22.5 0.00 0.66 0.66 63 1004.1
20260504173849 20 254 3.2 14.5 0.00 0.66 0.66 63 1004.7
20260504173345 20 325 4.8 8.0 0.00 0.66 0.66 62 1004.7
20260504172843 20 170 0.0 6.4 0.00 0.66 0.66 64 1004.9
20260504172339 20 125 4.8 22.5 0.00 0.66 0.66 60 1004.5
20260504171835 21 226 6.4 19.3 0.00 0.66 0.66 59 1004.8
20260504171332 22 303 0.0 20.9 0.00 0.66 0.66 58 1004.6
20260504170830 22 279 4.8 11.3 0.00 0.66 0.66 58 1005.0
20260504170326 22 266 11.3 12.9 0.00 0.66 0.66 58 1005.1
20260504160245 20 345 3.2 9.7 0.00 0.66 0.66 63 1005.5
20260504150710 17 35 3.2 3.2 0.00 0.66 0.66 73 1005.6
20260504150207 17 254 0.0 9.7 0.00 0.66 0.66 74 1005.3
20260504141136 17 88 4.8 14.5 0.00 0.66 0.66 74 1005.8
20260504140633 16 280 3.2 8.0 0.00 0.66 0.66 77 1005.7
20260504140128 16 111 6.4 16.1 0.00 0.66 0.66 77 1005.8